FALCON 9 DEB (49468 NORAD) Tracking and Keplerian Element Data

This shows tracking and keplerian element data for the satellite.

Feedback or suggestion? Click here.




ElementValue
Catalog49468
NameFALCON 9 DEB
Epoch Orbit263
Epoch Day332.7725484
Epoch Year2021
RAAN55.1317
Inclination53.217
Eccentricity0.0035183
Argument of Perigee86.9786
Mean Anonmoly273.5283
Mean Motion16.29307582
Decay Rate0.03150506
L11 49468U 21104BJ 21332.77254840 .03150506 12086-4 58898-3 0 9999
L22 49468 53.2170 55.1317 0035183 86.9786 273.5283 16.29307582 2631



Live tracking and technical data element details for FALCON 9 DEB (NORAD 49468). FALCON 9 DEB can be tracked NOW for your location showing map with azimuth and elevation plus other details from your city location.







IsCatalogInMostPopularTable: catalog: 49468, numindb: 48
Update: records affected: 1



GetName: 49468 FALCON 9 DEB

Hit Count: updated at: Sun, 11 Jun 2023 00:38:25 GMT